Year,Month,Day,Hour,Minute,Value (Times are PST for temperature in C)
2009,08,20,08,01,17.70
2009,08,20,08,02,17.70
2009,08,20,08,03,17.80
2009,08,20,08,04,17.90
2009,08,20,08,05,17.90
2009,08,20,08,06,17.90
2009,08,20,08,07,17.90
2009,08,20,08,08,17.90
2009,08,20,08,09,17.90
2009,08,20,08,10,17.90
2009,08,20,08,11,17.90
2009,08,20,08,12,17.90
2009,08,20,08,13,17.90
2009,08,20,08,14,17.90
2009,08,20,08,15,17.90
2009,08,20,08,16,17.90
2009,08,20,08,17,17.90
2009,08,20,08,18,17.90
2009,08,20,08,19,18.00
2009,08,20,08,20,18.00
2009,08,20,08,21,18.10
2009,08,20,08,22,18.10
2009,08,20,08,23,18.20
2009,08,20,08,24,18.20
2009,08,20,08,25,18.20
2009,08,20,08,26,18.20
2009,08,20,08,27,18.30
2009,08,20,08,28,18.30
2009,08,20,08,29,18.40
2009,08,20,08,30,18.40
2009,08,20,08,31,18.50
2009,08,20,08,32,18.60
2009,08,20,08,33,18.70
2009,08,20,08,34,18.70
2009,08,20,08,35,18.70
2009,08,20,08,36,18.80
2009,08,20,08,37,18.80
2009,08,20,08,38,18.80
2009,08,20,08,39,18.80
2009,08,20,08,40,18.80
2009,08,20,08,41,18.90
2009,08,20,08,42,18.90
2009,08,20,08,43,18.90
2009,08,20,08,44,18.90
2009,08,20,08,45,18.90
2009,08,20,08,46,18.90
2009,08,20,08,47,18.90
2009,08,20,08,48,19.00
2009,08,20,08,49,19.10
2009,08,20,08,50,19.10
2009,08,20,08,51,19.10
2009,08,20,08,52,19.10
2009,08,20,08,53,19.10
2009,08,20,08,54,19.20
2009,08,20,08,55,19.20
2009,08,20,08,56,19.30
2009,08,20,08,57,19.30
2009,08,20,08,58,19.40
2009,08,20,08,59,19.40
2009,08,20,09,00,19.50
2009,08,20,09,01,19.50
2009,08,20,09,02,19.50
2009,08,20,09,03,19.50
2009,08,20,09,04,19.50
2009,08,20,09,05,19.50
2009,08,20,09,06,19.50
2009,08,20,09,07,19.60
2009,08,20,09,08,19.60
2009,08,20,09,09,19.60
2009,08,20,09,10,19.60
2009,08,20,09,11,19.60
2009,08,20,09,12,19.60
2009,08,20,09,13,19.70
2009,08,20,09,14,19.80
2009,08,20,09,15,19.90
2009,08,20,09,16,19.90
2009,08,20,09,17,19.90
2009,08,20,09,18,20.10
2009,08,20,09,19,20.10
2009,08,20,09,20,20.20
2009,08,20,09,21,20.20
2009,08,20,09,22,20.20
2009,08,20,09,23,20.30
2009,08,20,09,24,20.40
2009,08,20,09,25,20.40
2009,08,20,09,26,20.40
2009,08,20,09,27,20.50
2009,08,20,09,28,20.50
2009,08,20,09,29,20.50
2009,08,20,09,30,20.60
2009,08,20,09,31,20.60
2009,08,20,09,32,20.60
2009,08,20,09,33,20.70
2009,08,20,09,34,20.70
2009,08,20,09,35,20.70
2009,08,20,09,36,20.80
2009,08,20,09,37,20.90
2009,08,20,09,38,21.00
2009,08,20,09,39,21.00
2009,08,20,09,40,21.00
2009,08,20,09,41,21.00
2009,08,20,09,42,21.10
2009,08,20,09,43,21.10
2009,08,20,09,44,21.20
2009,08,20,09,45,21.20
2009,08,20,09,46,21.30
2009,08,20,09,47,21.40
2009,08,20,09,48,21.40
2009,08,20,09,49,21.50
2009,08,20,09,50,21.60
2009,08,20,09,51,21.60
2009,08,20,09,52,21.60
2009,08,20,09,53,21.60
2009,08,20,09,54,21.60
2009,08,20,09,55,21.60
2009,08,20,09,56,21.60
2009,08,20,09,57,21.60
2009,08,20,09,58,21.60
2009,08,20,09,59,21.60
2009,08,20,10,00,21.60
2009,08,20,10,01,21.60
2009,08,20,10,02,21.60
2009,08,20,10,03,21.60
2009,08,20,10,04,21.60
2009,08,20,10,05,21.60
2009,08,20,10,06,21.70
2009,08,20,10,07,21.70
2009,08,20,10,08,21.70
2009,08,20,10,09,21.80
2009,08,20,10,10,21.90
2009,08,20,10,11,21.90
2009,08,20,10,12,21.90
2009,08,20,10,13,21.90
2009,08,20,10,14,22.00
2009,08,20,10,15,22.10
2009,08,20,10,16,22.10
2009,08,20,10,17,22.10
2009,08,20,10,18,22.10
2009,08,20,10,19,22.10
2009,08,20,10,20,22.10
2009,08,20,10,21,22.20
2009,08,20,10,22,22.20
2009,08,20,10,23,22.30
2009,08,20,10,24,22.40
2009,08,20,10,25,22.40
2009,08,20,10,26,22.30
2009,08,20,10,27,22.40
2009,08,20,10,28,22.50
2009,08,20,10,29,22.60
2009,08,20,10,30,22.70
2009,08,20,10,31,22.80
2009,08,20,10,32,22.90
2009,08,20,10,33,22.90
2009,08,20,10,34,22.90
2009,08,20,10,35,22.70
2009,08,20,10,36,22.70
2009,08,20,10,37,22.60
2009,08,20,10,38,22.50
2009,08,20,10,39,22.30
2009,08,20,10,40,22.20
2009,08,20,10,41,22.20
2009,08,20,10,42,22.20
2009,08,20,10,43,22.20
2009,08,20,10,44,22.20
2009,08,20,10,45,22.20
2009,08,20,10,46,22.20
2009,08,20,10,47,22.20
2009,08,20,10,48,22.20
2009,08,20,10,49,22.10
2009,08,20,10,50,22.10
2009,08,20,10,51,22.10
2009,08,20,10,52,22.20
2009,08,20,10,53,22.30
2009,08,20,10,54,22.40
2009,08,20,10,55,22.50
2009,08,20,10,56,22.50
2009,08,20,10,57,22.60
2009,08,20,10,58,22.60
2009,08,20,10,59,22.70
2009,08,20,11,00,22.70
2009,08,20,11,01,22.80
2009,08,20,11,02,22.80
2009,08,20,11,03,22.90
2009,08,20,11,04,22.90
2009,08,20,11,05,22.90
2009,08,20,11,06,23.00
2009,08,20,11,07,22.90
2009,08,20,11,08,22.90
2009,08,20,11,09,22.90
2009,08,20,11,10,22.90
2009,08,20,11,11,22.90
2009,08,20,11,12,22.90
2009,08,20,11,13,22.80
2009,08,20,11,14,22.70
2009,08,20,11,15,22.70
2009,08,20,11,16,22.70
2009,08,20,11,17,22.60
2009,08,20,11,18,22.60
2009,08,20,11,19,22.50
2009,08,20,11,20,22.50
2009,08,20,11,21,22.50
2009,08,20,11,22,22.60
2009,08,20,11,23,22.60
2009,08,20,11,24,22.40
2009,08,20,11,25,22.40
2009,08,20,11,26,22.40
2009,08,20,11,27,22.50
2009,08,20,11,28,22.60
2009,08,20,11,29,22.60
2009,08,20,11,30,22.60
2009,08,20,11,31,22.60
2009,08,20,11,32,22.50
2009,08,20,11,33,22.50
2009,08,20,11,34,22.60
2009,08,20,11,35,22.50
2009,08,20,11,36,22.40
2009,08,20,11,37,22.20
2009,08,20,11,38,22.20
2009,08,20,11,39,22.20
2009,08,20,11,40,22.20
2009,08,20,11,41,22.30
2009,08,20,11,42,22.30
2009,08,20,11,43,22.40
2009,08,20,11,44,22.40
2009,08,20,11,45,22.40
2009,08,20,11,46,22.40
2009,08,20,11,47,22.40
2009,08,20,11,48,22.40
2009,08,20,11,49,22.60
2009,08,20,11,50,22.70
2009,08,20,11,51,22.80
2009,08,20,11,52,22.80
2009,08,20,11,53,22.90
2009,08,20,11,54,23.00
2009,08,20,11,55,23.10
2009,08,20,11,56,23.10
2009,08,20,11,57,23.20
2009,08,20,11,58,23.10
2009,08,20,11,59,23.10
2009,08,20,12,00,23.10
2009,08,20,12,01,23.10
2009,08,20,12,02,23.10
2009,08,20,12,03,23.00
2009,08,20,12,04,22.90
2009,08,20,12,05,22.90
2009,08,20,12,06,23.00
2009,08,20,12,07,23.20
2009,08,20,12,08,23.30
2009,08,20,12,09,23.30
2009,08,20,12,10,23.30
2009,08,20,12,11,23.30
2009,08,20,12,12,23.30
2009,08,20,12,13,23.30
2009,08,20,12,14,23.30
2009,08,20,12,15,23.30
2009,08,20,12,16,23.30
2009,08,20,12,17,23.30
2009,08,20,12,18,23.30
2009,08,20,12,19,23.30
2009,08,20,12,20,23.30
2009,08,20,12,21,23.40
2009,08,20,12,22,23.60
2009,08,20,12,23,23.60
2009,08,20,12,24,23.60
2009,08,20,12,25,23.70
2009,08,20,12,26,23.70
2009,08,20,12,27,23.60
2009,08,20,12,28,23.60
2009,08,20,12,29,23.60
2009,08,20,12,30,23.70
2009,08,20,12,31,23.80
2009,08,20,12,32,23.90
2009,08,20,12,33,23.90
2009,08,20,12,34,23.70
2009,08,20,12,35,23.80
2009,08,20,12,36,23.90
2009,08,20,12,37,23.90
2009,08,20,12,38,23.90
2009,08,20,12,39,24.00
2009,08,20,12,40,24.00
2009,08,20,12,41,23.90
2009,08,20,12,42,23.90
2009,08,20,12,43,23.90
2009,08,20,12,44,23.90
2009,08,20,12,45,23.80
2009,08,20,12,46,23.80
2009,08,20,12,47,23.70
2009,08,20,12,48,23.60
2009,08,20,12,49,23.60
2009,08,20,12,50,23.70
2009,08,20,12,51,23.70
2009,08,20,12,52,23.70
2009,08,20,12,53,23.70
2009,08,20,12,54,23.70
2009,08,20,12,55,23.80
2009,08,20,12,56,23.70
2009,08,20,12,57,23.70
2009,08,20,12,58,23.80
2009,08,20,12,59,23.80
2009,08,20,13,00,23.80
2009,08,20,13,01,23.80
2009,08,20,13,02,23.80
2009,08,20,13,03,23.70
2009,08,20,13,04,23.70
2009,08,20,13,05,23.70
2009,08,20,13,06,23.80
2009,08,20,13,07,23.80
2009,08,20,13,08,23.90
2009,08,20,13,09,23.90
2009,08,20,13,10,23.90
2009,08,20,13,11,23.90
2009,08,20,13,12,24.00
2009,08,20,13,13,24.10
2009,08,20,13,14,24.10
2009,08,20,13,15,24.10
2009,08,20,13,16,24.20
2009,08,20,13,17,24.20
2009,08,20,13,18,24.30
2009,08,20,13,19,24.30
2009,08,20,13,20,24.20
2009,08,20,13,21,24.40
2009,08,20,13,22,24.50
2009,08,20,13,23,24.50
2009,08,20,13,24,24.50
2009,08,20,13,25,24.50
2009,08,20,13,26,24.40
2009,08,20,13,27,24.40
2009,08,20,13,28,24.40
2009,08,20,13,29,24.40
2009,08,20,13,30,24.40
2009,08,20,13,31,24.40
2009,08,20,13,32,24.30
2009,08,20,13,33,24.30
2009,08,20,13,34,24.30
2009,08,20,13,35,24.50
2009,08,20,13,36,24.70
2009,08,20,13,37,24.70
2009,08,20,13,38,24.70
2009,08,20,13,39,24.60
2009,08,20,13,40,24.50
2009,08,20,13,41,24.40
2009,08,20,13,42,24.40
2009,08,20,13,43,24.40
2009,08,20,13,44,24.50
2009,08,20,13,45,24.70
2009,08,20,13,46,24.80
2009,08,20,13,47,24.90
2009,08,20,13,48,24.90
2009,08,20,13,49,24.80
2009,08,20,13,50,24.70
2009,08,20,13,51,24.60
2009,08,20,13,52,24.60
2009,08,20,13,53,24.50
2009,08,20,13,54,24.40
2009,08,20,13,55,24.50
2009,08,20,13,56,24.70
2009,08,20,13,57,24.70
2009,08,20,13,58,24.70
2009,08,20,13,59,24.70
2009,08,20,14,00,24.80
2009,08,20,14,01,24.80
2009,08,20,14,02,24.80
2009,08,20,14,03,24.90
2009,08,20,14,04,24.80
2009,08,20,14,05,24.70
2009,08,20,14,06,24.70
2009,08,20,14,07,24.60
2009,08,20,14,08,24.60
2009,08,20,14,09,24.60
2009,08,20,14,10,24.70
2009,08,20,14,11,24.80
2009,08,20,14,12,24.70
2009,08,20,14,13,24.60
2009,08,20,14,14,24.50
2009,08,20,14,15,24.40
2009,08,20,14,16,24.40
2009,08,20,14,17,24.40
2009,08,20,14,18,24.30
2009,08,20,14,19,24.30
2009,08,20,14,20,24.20
2009,08,20,14,21,24.20
2009,08,20,14,22,24.20
2009,08,20,14,23,24.30
2009,08,20,14,24,24.30
2009,08,20,14,25,24.40
2009,08,20,14,26,24.50
2009,08,20,14,27,24.70
2009,08,20,14,28,24.80
2009,08,20,14,29,24.90
2009,08,20,14,30,25.00
2009,08,20,14,31,25.10
2009,08,20,14,32,25.10
2009,08,20,14,33,25.20
2009,08,20,14,34,25.20
2009,08,20,14,35,25.10
2009,08,20,14,36,25.10
2009,08,20,14,37,25.10
2009,08,20,14,38,25.10
2009,08,20,14,39,25.20
2009,08,20,14,40,25.20
2009,08,20,14,41,25.20
2009,08,20,14,42,25.30
2009,08,20,14,43,25.40
2009,08,20,14,44,25.50
2009,08,20,14,45,25.50
2009,08,20,14,46,25.60
2009,08,20,14,47,25.60
2009,08,20,14,48,25.60
2009,08,20,14,49,25.70
2009,08,20,14,50,25.80
2009,08,20,14,51,25.80
2009,08,20,14,52,25.80
2009,08,20,14,53,25.80
2009,08,20,14,54,25.70
2009,08,20,14,55,25.70
2009,08,20,14,56,25.80
2009,08,20,14,57,25.80
2009,08,20,14,58,25.80
2009,08,20,14,59,25.80
2009,08,20,15,00,25.80
2009,08,20,15,01,25.80
2009,08,20,15,02,25.80
2009,08,20,15,03,25.90
2009,08,20,15,04,25.90
2009,08,20,15,05,26.00
2009,08,20,15,06,25.90
2009,08,20,15,07,25.90
2009,08,20,15,08,25.80
2009,08,20,15,09,25.60
2009,08,20,15,10,25.40
2009,08,20,15,11,25.40
2009,08,20,15,12,25.20
2009,08,20,15,13,25.00
2009,08,20,15,14,24.80
2009,08,20,15,15,24.70
2009,08,20,15,16,24.80
2009,08,20,15,17,24.70
2009,08,20,15,18,24.70
2009,08,20,15,19,24.70
2009,08,20,15,20,24.70
2009,08,20,15,21,24.70
2009,08,20,15,22,24.70
2009,08,20,15,23,24.70
2009,08,20,15,24,24.70
2009,08,20,15,25,24.70
2009,08,20,15,26,24.70
2009,08,20,15,27,24.70
2009,08,20,15,28,24.80
2009,08,20,15,29,24.90
2009,08,20,15,30,25.00
2009,08,20,15,31,25.00
2009,08,20,15,32,25.10
2009,08,20,15,33,25.10
2009,08,20,15,34,25.10
2009,08,20,15,35,25.10
2009,08,20,15,36,25.10
2009,08,20,15,37,25.20
2009,08,20,15,38,25.10
2009,08,20,15,39,25.00
2009,08,20,15,40,25.00
2009,08,20,15,41,25.10
2009,08,20,15,42,25.00
2009,08,20,15,43,25.10
2009,08,20,15,44,25.10
2009,08,20,15,45,25.10
2009,08,20,15,46,25.20
2009,08,20,15,47,25.30
2009,08,20,15,48,25.40
2009,08,20,15,49,25.40
2009,08,20,15,50,25.50
2009,08,20,15,51,25.40
2009,08,20,15,52,25.40
2009,08,20,15,53,25.30
2009,08,20,15,54,25.30
2009,08,20,15,55,25.20
2009,08,20,15,56,25.20
2009,08,20,15,57,25.20
2009,08,20,15,58,25.20
2009,08,20,15,59,25.30
2009,08,20,16,00,25.30
2009,08,20,16,01,25.40
2009,08,20,16,02,25.40
2009,08,20,16,03,25.40
2009,08,20,16,04,25.50
2009,08,20,16,05,25.60
2009,08,20,16,06,25.70
2009,08,20,16,07,25.70
2009,08,20,16,08,25.70
2009,08,20,16,09,25.70
2009,08,20,16,10,25.60
2009,08,20,16,11,25.60
2009,08,20,16,12,25.60
2009,08,20,16,13,25.60
2009,08,20,16,14,25.60
2009,08,20,16,15,25.50
2009,08,20,16,16,25.50
2009,08,20,16,17,25.50
2009,08,20,16,18,25.50
2009,08,20,16,19,25.50
2009,08,20,16,20,25.50
2009,08,20,16,21,25.60
2009,08,20,16,22,25.50
2009,08,20,16,23,25.50
2009,08,20,16,24,25.60
2009,08,20,16,25,25.60
2009,08,20,16,26,25.70
2009,08,20,16,27,25.70
2009,08,20,16,28,25.70
2009,08,20,16,29,25.70
2009,08,20,16,30,25.70
2009,08,20,16,31,25.60
2009,08,20,16,32,25.50
2009,08,20,16,33,25.40
2009,08,20,16,34,25.40
2009,08,20,16,35,25.50
2009,08,20,16,36,25.40
2009,08,20,16,37,25.30
2009,08,20,16,38,25.30
2009,08,20,16,39,25.30
2009,08,20,16,40,25.30
2009,08,20,16,41,25.20
2009,08,20,16,42,25.20
2009,08,20,16,43,25.20
2009,08,20,16,44,25.20
2009,08,20,16,45,25.20
2009,08,20,16,46,25.20
2009,08,20,16,47,25.20
2009,08,20,16,48,25.20
2009,08,20,16,49,25.10
2009,08,20,16,50,25.00
2009,08,20,16,51,24.90
2009,08,20,16,52,24.90
2009,08,20,16,53,24.90
2009,08,20,16,54,24.90
2009,08,20,16,55,24.90
2009,08,20,16,56,24.90
2009,08,20,16,57,24.80
2009,08,20,16,58,24.70
2009,08,20,16,59,24.70
2009,08,20,17,00,24.70
2009,08,20,17,01,24.70
2009,08,20,17,02,24.70
2009,08,20,17,03,24.70
2009,08,20,17,04,24.70
2009,08,20,17,05,24.70
2009,08,20,17,06,24.60
2009,08,20,17,07,24.60
2009,08,20,17,08,24.50
2009,08,20,17,09,24.50
2009,08,20,17,10,24.40
2009,08,20,17,11,24.40
2009,08,20,17,12,24.40
2009,08,20,17,13,24.30
2009,08,20,17,14,24.30
2009,08,20,17,15,24.30
2009,08,20,17,16,24.30
2009,08,20,17,17,24.30
2009,08,20,17,18,24.40
2009,08,20,17,19,24.40
2009,08,20,17,20,24.40
2009,08,20,17,21,24.40
2009,08,20,17,22,24.50
2009,08,20,17,23,24.60
2009,08,20,17,24,24.60
2009,08,20,17,25,24.70
2009,08,20,17,26,24.70
2009,08,20,17,27,24.70
2009,08,20,17,28,24.80
2009,08,20,17,29,24.80
2009,08,20,17,30,24.80
2009,08,20,17,31,24.80
2009,08,20,17,32,24.80
2009,08,20,17,33,24.80
2009,08,20,17,34,24.80
2009,08,20,17,35,24.80
2009,08,20,17,36,24.90
2009,08,20,17,37,24.90
2009,08,20,17,38,24.90
2009,08,20,17,39,24.90
2009,08,20,17,40,24.90
2009,08,20,17,41,24.90
2009,08,20,17,42,24.90
2009,08,20,17,43,24.90
2009,08,20,17,44,24.90
2009,08,20,17,45,24.90
2009,08,20,17,46,24.90
2009,08,20,17,47,24.80
2009,08,20,17,48,24.80
2009,08,20,17,49,24.70
2009,08,20,17,50,24.60
2009,08,20,17,51,24.60
2009,08,20,17,52,24.60
2009,08,20,17,53,24.60
2009,08,20,17,54,24.50
2009,08,20,17,55,24.50
2009,08,20,17,56,24.40
2009,08,20,17,57,24.40
2009,08,20,17,58,24.40
2009,08,20,17,59,24.40
2009,08,20,18,00,24.40
2009,08,20,18,01,24.30
2009,08,20,18,02,24.30
2009,08,20,18,03,24.30
2009,08,20,18,04,24.20
2009,08,20,18,05,24.10
2009,08,20,18,06,24.10
2009,08,20,18,07,24.10
2009,08,20,18,08,24.10
2009,08,20,18,09,24.10
2009,08,20,18,10,24.10
2009,08,20,18,11,24.10
2009,08,20,18,12,23.90
2009,08,20,18,13,23.90
2009,08,20,18,14,23.90
2009,08,20,18,15,23.90
2009,08,20,18,16,23.90
2009,08,20,18,17,23.90
2009,08,20,18,18,23.90
2009,08,20,18,19,23.90
2009,08,20,18,20,23.90
2009,08,20,18,21,23.80
2009,08,20,18,22,23.80
2009,08,20,18,23,23.80
2009,08,20,18,24,23.80
2009,08,20,18,25,23.80
2009,08,20,18,26,23.80
2009,08,20,18,27,23.70
2009,08,20,18,28,23.60
2009,08,20,18,29,23.50
2009,08,20,18,30,23.40
2009,08,20,18,31,23.30
2009,08,20,18,32,23.30
2009,08,20,18,33,23.30
2009,08,20,18,34,23.30
2009,08,20,18,35,23.30
2009,08,20,18,36,23.30
2009,08,20,18,37,23.20
2009,08,20,18,38,23.20
2009,08,20,18,39,23.20
2009,08,20,18,40,23.10
2009,08,20,18,41,23.10
2009,08,20,18,42,23.10
2009,08,20,18,43,23.10
2009,08,20,18,44,23.10
2009,08,20,18,45,23.20
2009,08,20,18,46,23.20
2009,08,20,18,47,23.20
2009,08,20,18,48,23.20
2009,08,20,18,49,23.20
2009,08,20,18,50,23.30
2009,08,20,18,51,23.30
2009,08,20,18,52,23.20
2009,08,20,18,53,23.20
2009,08,20,18,54,23.00
2009,08,20,18,55,22.70
2009,08,20,18,56,22.60
2009,08,20,18,57,22.40
2009,08,20,18,58,22.30
2009,08,20,18,59,22.20
2009,08,20,19,00,22.10
2009,08,20,19,01,22.00
2009,08,20,19,02,21.90
2009,08,20,19,03,21.90
2009,08,20,19,04,21.90
2009,08,20,19,05,21.80
2009,08,20,19,06,21.70
2009,08,20,19,07,21.70
2009,08,20,19,08,21.70
2009,08,20,19,09,21.80
2009,08,20,19,10,21.70
2009,08,20,19,11,21.80
2009,08,20,19,12,21.80
2009,08,20,19,13,21.90
2009,08,20,19,14,22.00
2009,08,20,19,15,22.00
2009,08,20,19,16,22.00
2009,08,20,19,17,22.10
2009,08,20,19,18,22.10
2009,08,20,19,19,22.10
2009,08,20,19,20,22.10
2009,08,20,19,21,22.10
2009,08,20,19,22,22.10
2009,08,20,19,23,22.10
2009,08,20,19,24,22.10
2009,08,20,19,25,22.10
2009,08,20,19,26,22.10
2009,08,20,19,27,22.10
